[[{"header":{"parameterUnit":"m.s-1","parameterCategory":1,"la1":30.2991,"la2":30.254,"lo1":-89.0895,"lo2":-89.0444,"dy":0.0017,"dx":0.0017,"nx":28,"ny":28,"refTime":"2023-08-18T03:00:00:Z","depth":0,"parameterNumber":2,"parameterNumberName":"U-component_of_WINDS"},"data":[0,0,0,0,0,0,0,0,0,0,0,0,0,0,0,0,0,0,0,0,0,0,0,0,0,0,0,0,0,0,0,0,0,0,0,0,0,0,0,0,0,0,0,0,0,0,0,0,0,0,0,0,0,0,0,0,0,0,4.3225,4.3225,0,4.3229,4.3229,4.3229,4.3086,4.3082,4.3078,4.3075,4.308,4.3084,4.3088,0,0,0,0,0,0,0,0,0,0,0,0,0,4.3094,4.3097,4.3225,4.3225,4.3225,4.3228,4.3229,4.3229,4.3086,4.3082,4.3077,4.3073,4.3079,4.3084,4.3088,0,0,0,0,0,0,0,0,0,0,0,0,0,4.313,4.3098,4.3225,4.3154,4.3148,4.3228,4.3229,4.3229,4.3087,4.3082,4.3076,4.3071,4.3078,4.3083,4.3089,4.3237,0,0,4.3106,4.3108,0,0,0,0,0,0,0,0,4.3128,4.3135,4.3165,4.3159,4.3152,4.3151,4.3184,4.3232,4.3089,4.3111,4.3074,4.3068,4.3109,4.3111,4.3125,4.3238,4.3238,4.3106,4.3109,4.3112,4.3113,0,0,0,0,0,0,0,4.3126,4.3134,4.3226,4.3165,4.3158,4.3122,4.3121,4.3193,4.3142,4.3108,4.3098,4.31,4.3104,4.312,4.3124,4.3238,4.3106,4.3111,4.3114,4.3116,4.3468,4.3474,0,0,0,0,0,0,4.3133,4.3133,4.3226,4.3226,4.3126,4.3129,4.3128,4.3157,4.314,4.3132,4.3105,4.3093,4.3113,4.3117,4.3123,4.3292,4.3112,4.3117,4.312,4.3463,4.347,4.3476,0,0,0,0,0,0,4.313,4.3142,4.3226,4.3177,4.3184,4.3138,4.3172,4.316,4.3175,4.3138,4.3128,4.313,4.3108,4.3115,4.3209,4.3291,4.312,4.3125,4.3455,4.3465,4.3473,4.3634,0,0,0,0,0,0,4.3127,4.3142,4.3199,4.3179,4.3188,4.3312,4.3177,4.3164,4.3185,4.317,4.3159,4.3152,4.3105,4.3201,4.3214,4.3295,4.3129,4.3448,4.346,4.347,4.3621,4.3648,4.367,0,0,0,0,0,4.3123,4.3245,4.3202,4.3214,4.3257,4.3317,4.3322,4.3265,4.3192,4.3248,4.3223,4.3152,4.3281,4.3212,4.3226,4.3309,4.3442,4.3456,4.3469,4.361,4.3642,4.367,0,0,0,0,0,0,4.3278,4.3242,4.3193,4.3313,4.3319,4.3293,4.3361,4.3301,4.3329,4.3313,4.3242,4.3241,4.3345,4.3337,4.3261,4.345,4.3348,4.3365,4.3451,4.3481,4.3505,4.3503,4.3134,0,0,0,0,0,4.3325,4.3377,4.3343,4.3452,4.3457,4.3409,4.3433,4.3388,4.3392,4.3394,4.3376,4.3383,4.3424,4.3453,4.3489,4.3621,4.3614,4.3685,4.3709,4.3729,4.3744,4.3809,4.3838,4.3521,4.3521,4.352,0,0,4.3425,4.3412,4.3449,4.3482,4.3481,4.3535,4.3412,4.3476,4.3514,4.3404,4.3489,4.3477,4.3479,4.3591,4.364,4.3588,4.383,4.3747,4.3763,4.3766,4.3826,4.3856,4.3882,4.353,4.3528,4.3527,0,0,4.3633,4.363,4.3717,4.3719,4.3718,4.3685,4.3707,4.3689,4.3676,4.3761,4.3677,4.3723,4.3797,4.3801,4.3812,4.4019,4.3953,4.4034,4.416,4.4224,4.4249,4.4271,4.4341,4.4367,4.4049,4.4049,4.405,0,4.3757,4.3834,4.3771,4.3838,4.3853,4.3755,4.3842,4.3847,4.386,4.3872,4.3814,4.3902,4.3897,4.4006,4.4056,4.4071,4.4091,4.4033,4.4251,4.4272,4.4291,4.4357,4.4384,4.4059,4.4058,4.4057,4.4056,0,4.3984,4.4039,4.411,4.4121,4.4146,4.4224,4.4171,4.4203,4.4156,4.4129,4.4215,4.4206,4.4236,4.426,4.4216,4.4363,4.433,4.4263,4.4158,4.4332,4.4392,4.4417,4.4072,4.4069,4.4066,4.4064,0,0,4.4289,4.4262,4.4289,4.4291,4.4283,4.4324,4.4396,4.4425,4.4452,4.4465,4.4521,4.4585,4.4521,4.4535,4.4491,4.4548,4.4707,4.4472,4.4471,4.4513,4.4863,4.4911,4.4942,4.4665,4.4669,4.4673,4.4862,0,4.4486,4.4606,4.455,4.4677,4.4724,4.4631,4.4693,4.4695,4.4671,4.4709,4.4683,4.4727,4.4643,4.4649,4.4702,4.4677,4.4776,4.4663,4.4715,4.4717,4.4713,4.4974,4.5025,4.5204,4.4885,4.489,4.4892,0,4.4733,4.4752,4.4883,4.4861,4.488,4.4937,4.4956,4.4994,4.4993,4.4972,4.4986,4.4928,4.4996,4.4895,4.4987,4.4911,4.493,4.4921,4.4926,4.4925,4.4813,4.4977,4.526,4.5285,4.493,4.4927,4.4924,0,4.4936,4.4996,4.508,4.5085,4.5065,4.5106,4.5099,4.5093,4.5112,4.513,4.5142,4.5169,4.5183,4.5205,4.5155,4.5087,4.5253,4.5148,4.5235,4.5236,4.5271,4.5269,4.5557,4.5291,4.529,4.529,4.5289,0,4.5161,4.5244,4.517,4.5222,4.531,4.5245,4.5335,4.5319,4.5313,4.5359,4.5282,4.5327,4.526,4.5299,4.5261,4.534,4.5349,4.5332,4.532,4.5337,4.5338,4.5345,4.533,4.5297,4.5295,4.5294,4.5293,0,4.5402,4.5357,4.5441,4.5414,4.5409,4.5475,4.5451,4.5497,4.5468,4.5527,4.5538,4.5492,4.5533,4.5486,4.5525,4.5499,4.5605,4.5577,4.5605,4.5595,4.5683,4.5674,4.5982,4.6018,4.5733,4.5735,4.5738,0,4.5546,4.5607,4.5585,4.5609,4.5606,4.5647,4.5666,4.5604,4.5627,4.5629,4.5675,4.5709,4.5732,4.5802,4.5772,4.5801,4.577,4.5876,4.5774,4.5787,4.5767,4.5762,4.5766,4.5896,4.59,4.5902,4.5905,0,4.5806,4.5779,4.5808,4.5829,4.5853,4.5867,4.5876,4.59,4.5836,4.5866,4.5905,4.5923,4.596,4.5994,4.6014,4.6007,4.5945,4.5938,4.5958,4.5974,4.5985,4.5976,4.5657,4.593,4.5927,4.5926,4.5924,4.5923,4.6,4.6047,4.6038,4.6072,4.6071,4.608,4.612,4.6095,4.6127,4.615,4.6113,4.6162,4.6158,4.6177,4.6177,4.6214,4.6168,4.62,4.6207,4.6215,4.6226,4.5983,4.6218,4.6217,4.6217,4.6216,4.6215,0,4.6251,4.624,4.6272,4.6284,4.631,4.6249,4.6255,4.6281,4.6324,4.6325,4.6348,4.6393,4.6425,4.6398,4.6424,4.6459,4.6431,4.6467,4.6462,4.6461,4.6267,4.6244,4.6489,4.6489,4.6489,4.6489,4.6489,4.6489,4.6385,4.646,4.6433,4.6507,4.6495,4.6541,4.6548,4.6556,4.6555,4.6607,4.6632,4.6614,4.6603,4.6627,4.6653,4.6644,4.6656,4.6702,4.6683,4.6502,4.6475,4.6449,4.6427,4.6706,4.6707,4.6873,4.6874,4.6876]},{"header":{"parameterUnit":"m.s-1","parameterCategory":1,"la1":30.2991,"la2":30.254,"lo1":-89.0895,"lo2":-89.0444,"dy":0.0017,"dx":0.0017,"nx":28,"ny":28,"refTime":"2023-08-18T03:00:00:Z","depth":0,"parameterNumber":3,"parameterNumberName":"V-component_of_WINDS"},"data":[0,0,0,0,0,0,0,0,0,0,0,0,0,0,0,0,0,0,0,0,0,0,0,0,0,0,0,0,0,0,0,0,0,0,0,0,0,0,0,0,0,0,0,0,0,0,0,0,0,0,0,0,0,0,0,0,0,0,3.1708,3.1709,0,3.1855,3.1856,3.1858,3.1872,3.187,3.1869,3.1867,3.2016,3.2022,3.2027,0,0,0,0,0,0,0,0,0,0,0,0,0,3.1435,3.144,3.1707,3.1709,3.1711,3.1854,3.1856,3.1858,3.1872,3.187,3.1869,3.1867,3.2015,3.2021,3.2027,0,0,0,0,0,0,0,0,0,0,0,0,0,3.1565,3.1442,3.1707,3.1735,3.1739,3.1854,3.1856,3.1859,3.1873,3.187,3.1868,3.1866,3.2012,3.202,3.2028,3.2124,0,0,3.2053,3.2056,0,0,0,0,0,0,0,0,3.1558,3.1575,3.1729,3.1734,3.1738,3.1843,3.1815,3.1948,3.1873,3.1822,3.1867,3.1865,3.196,3.1972,3.2005,3.2131,3.2138,3.2054,3.2059,3.2062,3.2064,0,0,0,0,0,0,0,3.1549,3.1569,3.1766,3.1732,3.1737,3.174,3.1755,3.184,3.1902,3.1826,3.1828,3.1845,3.1962,3.1997,3.2009,3.214,3.2053,3.2061,3.2066,3.2069,3.2349,3.2351,0,0,0,0,0,0,3.1535,3.1561,3.1761,3.177,3.1641,3.1746,3.1764,3.1811,3.1901,3.1913,3.1847,3.1845,3.1985,3.1999,3.2014,3.213,3.2062,3.207,3.2074,3.2346,3.2349,3.2352,0,0,0,0,0,0,3.1529,3.1552,3.1755,3.1666,3.1692,3.1754,3.1807,3.1816,3.1851,3.1917,3.1928,3.1871,3.1983,3.2003,3.2096,3.2135,3.2073,3.2081,3.2343,3.2347,3.2351,3.2364,0,0,0,0,0,0,3.1521,3.155,3.1588,3.1667,3.1697,3.1836,3.1809,3.182,3.1865,3.1864,3.1943,3.1954,3.1983,3.2084,3.2104,3.2145,3.2087,3.234,3.2345,3.2349,3.236,3.2368,3.2374,0,0,0,0,0,3.1511,3.1587,3.159,3.1614,3.1746,3.1838,3.1855,3.1888,3.1868,3.1906,3.1948,3.1951,3.2128,3.2093,3.2116,3.2161,3.2338,3.2343,3.2349,3.2357,3.2366,3.2374,0,0,0,0,0,0,3.1511,3.1597,3.1602,3.1706,3.1764,3.184,3.1889,3.1897,3.1962,3.1959,3.1996,3.2014,3.2105,3.2143,3.2103,3.2257,3.2231,3.2241,3.2229,3.2238,3.2245,3.2233,3.2094,0,0,0,0,0,3.1523,3.1592,3.1663,3.1747,3.1776,3.1828,3.1869,3.1889,3.1951,3.1976,3.2025,3.2085,3.2154,3.2198,3.2266,3.2366,3.2382,3.2408,3.2415,3.242,3.2428,3.2481,3.2493,3.2371,3.2371,3.2371,0,0,3.1548,3.1604,3.1645,3.1748,3.1796,3.1865,3.1849,3.1923,3.1974,3.1987,3.2078,3.2116,3.2185,3.2282,3.2327,3.2315,3.2465,3.2427,3.2431,3.2437,3.2488,3.25,3.251,3.2375,3.2374,3.2374,0,0,3.1629,3.1679,3.1753,3.1802,3.1874,3.1907,3.1925,3.2,3.2025,3.2117,3.2128,3.2189,3.2307,3.2355,3.2395,3.2491,3.2496,3.2512,3.2548,3.26,3.2609,3.2618,3.265,3.2661,3.2521,3.2521,3.2521,0,3.1651,3.1756,3.1791,3.1864,3.1908,3.1923,3.1997,3.2042,3.2133,3.2162,3.2149,3.2296,3.2344,3.245,3.2473,3.2506,3.2526,3.2503,3.2605,3.2614,3.2623,3.2654,3.2666,3.2522,3.2522,3.2522,3.2522,0,3.1778,3.1851,3.1902,3.1988,3.2038,3.2112,3.2156,3.2202,3.2217,3.2251,3.2343,3.2401,3.2478,3.2506,3.2522,3.2614,3.2604,3.2598,3.2572,3.2635,3.2664,3.2677,3.2524,3.2523,3.2523,3.2523,0,0,3.1864,3.1967,3.1985,3.2023,3.2104,3.216,3.2233,3.2309,3.2347,3.2409,3.2469,3.2568,3.2562,3.2607,3.2628,3.2673,3.2743,3.2661,3.2663,3.2672,3.2845,3.2848,3.2861,3.2747,3.2749,3.2751,3.2838,0,3.1952,3.2083,3.2115,3.2226,3.2292,3.2307,3.237,3.2425,3.2459,3.2519,3.2556,3.2624,3.2612,3.2639,3.2684,3.2725,3.2778,3.2719,3.2802,3.2804,3.2782,3.2877,3.2882,3.2961,3.285,3.2853,3.2854,0,3.2072,3.2136,3.2254,3.2323,3.2352,3.2408,3.2479,3.2537,3.2599,3.262,3.2669,3.2686,3.2761,3.2732,3.2834,3.2793,3.2829,3.2854,3.2858,3.2865,3.2832,3.2885,3.2988,3.2999,3.2873,3.2871,3.287,0,3.2119,3.2234,3.2319,3.2352,3.2436,3.2474,3.2511,3.2571,3.2614,3.2676,3.2704,3.2774,3.2811,3.2864,3.2898,3.2875,3.2997,3.2972,3.3015,3.3014,3.3038,3.3036,3.3146,3.3065,3.3065,3.3064,3.3064,0,3.2213,3.2284,3.2341,3.2393,3.2472,3.2507,3.2584,3.2621,3.2674,3.2732,3.275,3.2804,3.2846,3.2905,3.2933,3.3011,3.3029,3.3047,3.3053,3.3044,3.3041,3.3067,3.3061,3.3068,3.3067,3.3066,3.3066,0,3.2279,3.232,3.2413,3.2484,3.2503,3.2558,3.2619,3.2669,3.2702,3.2775,3.2795,3.2847,3.2918,3.2957,3.3046,3.3064,3.3151,3.3156,3.313,3.3132,3.3172,3.3167,3.3301,3.3319,3.3227,3.3228,3.3229,0,3.2335,3.2389,3.2466,3.2506,3.2543,3.2608,3.2652,3.2688,3.2733,3.2806,3.2847,3.2919,3.2978,3.3089,3.3135,3.3202,3.3207,3.3249,3.3217,3.3205,3.3204,3.32,3.3204,3.3254,3.3254,3.3255,3.3256,0,3.2429,3.2446,3.2509,3.2578,3.2629,3.2685,3.2741,3.2773,3.2818,3.2867,3.2939,3.2985,3.3075,3.3145,3.3215,3.3252,3.3261,3.3265,3.3279,3.3269,3.3251,3.3259,3.3143,3.3262,3.3261,3.3261,3.326,3.326,3.249,3.2538,3.2599,3.2668,3.2713,3.2764,3.2814,3.2853,3.2914,3.299,3.3008,3.3084,3.3142,3.3238,3.3276,3.3335,3.3327,3.3346,3.3351,3.3355,3.3355,3.3243,3.3348,3.3348,3.3348,3.3348,3.3348,0,3.2583,3.2623,3.2686,3.2762,3.2815,3.282,3.2881,3.2925,3.2991,3.3045,3.3102,3.3184,3.3252,3.3302,3.337,3.3407,3.3413,3.3424,3.3421,3.3428,3.3359,3.334,3.3418,3.3418,3.3418,3.3418,3.3418,3.3418,3.2638,3.2719,3.2743,3.2846,3.2885,3.2959,3.2993,3.304,3.3083,3.3173,3.3229,3.3262,3.3314,3.3386,3.3448,3.346,3.3484,3.3494,3.3507,3.3441,3.3433,3.3426,3.3408,3.3499,3.3499,3.3571,3.3572,3.3572]}]]